Theta_e
290 289 287 287 288 287 286 284 283 283 282 282 282 283 283 283 281 276 276 277 278 279 280 278 279 280 279 279 279 279 279 280 282 280 280 279 277 281 285 287 290 291 292 292 293 292 292 291 290 290 290 290 291 291 291 291 291 291 292 293 293 293 293 293 294 294 294 293 293 294 294 294 296 295
289 289 288 287 287 287 285 284 284 283 282 282 282 283 283 284 283 280 278 279 280 279 279 280 279 279 279 280 279 279 279 282 282 279 279 278 277 282 284 286 288 290 292 293 292 292 292 291 290 290 290 290 291 291 291 291 291 291 292 293 292 292 292 293 293 293 292 292 292 293 294 294 294 295
289 289 288 288 287 287 285 284 283 283 283 282 282 282 282 282 283 282 281 279 279 281 279 280 280 279 280 280 280 279 279 281 283 279 279 278 281 283 283 285 286 288 290 291 291 291 291 291 290 290 290 290 291 291 291 290 290 291 291 291 292 292 291 291 291 291 291 291 291 292 293 293 294 294
289 289 288 288 287 287 285 284 283 282 282 282 282 282 282 282 282 282 281 281 280 280 280 280 280 280 280 280 279 279 279 280 284 280 279 278 281 281 280 283 285 286 288 289 289 290 291 291 291 291 290 290 290 290 290 290 290 290 290 290 291 290 289 289 289 290 289 290 291 292 292 292 293 293
289 289 288 289 288 287 285 284 284 282 282 282 282 282 282 282 281 282 282 281 278 277 276 280 280 280 280 279 280 279 278 278 280 281 279 278 278 278 278 278 282 284 286 286 287 289 290 290 290 290 290 289 290 289 289 290 290 289 289 289 289 289 289 289 289 288 288 289 290 291 291 292 292 292
290 289 288 288 288 287 285 285 284 283 282 282 281 281 281 282 281 281 282 281 280 278 276 277 279 278 280 278 280 279 278 278 278 279 279 278 277 277 277 277 277 283 284 285 287 288 289 289 290 290 290 290 290 290 289 289 288 288 288 288 287 287 287 287 287 287 288 289 290 291 291 291 291 291
290 289 288 288 288 287 285 285 285 283 282 282 282 282 281 282 281 281 281 281 280 279 278 278 277 278 278 279 278 279 279 279 278 277 278 278 278 278 278 277 277 281 284 286 287 287 288 288 289 289 289 289 289 289 288 288 287 287 287 287 286 286 286 286 286 286 287 288 289 290 290 290 290 290
290 289 288 288 288 286 285 285 284 283 283 282 282 282 281 282 281 281 280 281 281 280 278 277 278 278 277 278 278 279 278 278 277 277 277 277 277 278 278 278 277 279 284 285 286 287 287 288 288 289 289 288 288 288 287 287 287 287 286 286 285 285 285 285 285 285 287 288 289 289 289 289 289 290
291 289 288 289 288 286 284 285 284 282 281 282 282 281 281 281 281 280 279 280 281 280 279 278 277 278 278 277 277 278 277 276 276 276 276 276 276 277 277 277 278 280 283 284 285 286 287 287 288 288 288 288 287 287 286 286 287 286 286 284 284 284 284 284 284 285 286 287 287 287 288 289 289 289
292 291 290 289 289 287 285 285 285 283 282 282 281 281 281 281 280 279 278 279 279 281 280 278 276 277 277 276 276 276 278 276 275 275 275 275 275 275 275 276 276 277 277 277 279 283 284 285 287 287 287 286 286 285 285 286 286 285 284 283 283 283 283 284 285 286 286 286 286 286 287 288 288 287
293 292 291 290 289 287 286 286 285 284 283 282 282 282 281 281 280 279 278 278 279 280 279 278 278 277 277 277 276 276 277 277 277 276 275 274 276 275 275 275 276 277 277 279 281 280 279 280 281 282 283 283 284 284 285 285 284 283 282 282 283 282 283 284 285 285 285 285 285 285 285 285 286 287
292 291 290 289 289 287 287 287 287 285 283 283 282 282 282 280 279 279 278 278 278 278 278 277 276 277 276 275 275 275 275 275 275 275 276 275 275 274 275 276 275 276 276 275 275 279 281 282 283 284 284 284 284 283 282 281 281 280 281 281 282 282 283 284 284 285 284 284 284 284 284 284 285 286
291 290 289 288 288 287 286 286 287 286 285 283 282 282 281 280 279 279 279 279 279 278 278 277 277 276 276 276 274 274 274 274 276 276 275 275 276 275 274 274 276 275 275 275 274 274 275 276 276 275 274 275 278 278 279 279 280 279 280 281 282 283 283 284 284 284 284 284 284 284 284 283 283 284
291 290 289 289 287 286 286 286 287 287 287 286 285 284 281 281 280 280 279 279 279 278 278 277 276 276 275 275 276 275 276 277 276 274 274 274 275 274 274 274 275 275 275 274 273 274 274 274 273 273 273 273 276 275 275 274 276 278 281 282 282 283 283 283 283 283 283 283 283 283 283 283 283 283
290 290 289 289 287 286 286 286 286 288 288 287 287 287 285 284 282 280 279 279 279 278 278 278 277 277 276 276 277 277 277 276 276 275 275 275 274 273 272 273 274 275 275 273 273 273 273 273 272 272 272 272 273 274 274 278 280 280 281 282 282 282 282 283 283 283 282 282 282 282 282 282 282 282
291 290 289 288 288 287 287 286 285 286 287 287 287 287 286 285 285 285 282 280 279 279 278 277 277 278 278 277 277 276 276 275 275 275 275 274 274 274 273 273 273 274 275 273 271 271 272 272 272 271 272 272 273 273 276 280 280 281 282 282 282 282 282 282 282 282 282 281 281 281 282 282 282 282
291 290 289 288 288 287 286 285 286 285 285 286 287 286 286 286 286 287 287 286 282 281 280 279 278 279 279 278 277 277 277 277 275 275 274 274 274 275 274 274 273 273 274 273 271 270 272 271 271 271 272 272 272 273 278 280 281 281 281 282 282 281 281 281 281 281 281 281 281 281 281 281 281 281
290 290 290 288 287 286 285 285 285 284 284 284 284 284 283 282 283 285 285 285 285 283 281 280 278 279 280 280 279 279 279 277 276 275 274 275 274 274 274 275 275 273 273 273 271 268 270 271 271 271 272 272 272 272 275 279 280 280 281 281 281 281 280 280 280 280 280 280 280 280 280 280 280 280
289 289 289 288 287 286 284 284 284 283 283 283 283 282 281 281 281 282 282 282 281 281 281 281 281 280 280 281 280 279 279 278 278 277 276 276 275 274 273 271 272 272 273 273 272 269 268 270 270 271 271 271 271 271 276 279 280 280 280 280 280 280 280 280 280 280 280 280 280 280 280 280 280 280
289 289 288 287 286 286 285 284 285 284 283 282 282 281 281 280 281 281 283 284 283 282 281 282 282 281 281 282 279 279 279 279 277 274 272 273 271 271 270 271 268 269 272 273 273 267 265 269 270 270 271 270 270 271 269 275 279 279 279 279 278 279 279 279 279 279 279 279 279 279 279 279 279 279
288 288 287 287 286 285 285 285 286 286 284 282 281 281 280 280 279 280 282 285 285 285 284 284 284 284 284 284 284 284 283 280 276 274 272 271 271 271 269 269 267 269 270 271 273 270 267 268 269 268 268 269 269 269 269 270 275 277 278 278 278 278 278 279 278 278 278 278 278 278 278 278 278 278
287 287 286 286 286 285 285 286 286 287 284 281 281 281 280 278 278 279 281 282 283 285 284 284 284 284 284 284 285 285 284 283 279 275 274 273 272 272 271 271 269 268 268 271 273 269 267 266 268 266 264 265 266 269 269 269 270 276 277 278 277 277 277 278 278 277 277 277 277 277 277 278 277 274
287 286 285 285 285 285 285 286 286 286 284 281 281 281 279 278 277 278 279 280 280 281 281 281 282 281 282 282 282 283 284 284 280 278 277 273 273 272 271 270 268 268 269 271 274 269 266 268 267 267 263 263 264 266 267 268 269 270 270 271 271 275 276 276 276 276 275 275 276 276 276 277 276 273
286 285 285 285 286 287 286 286 287 287 286 282 281 281 279 278 278 279 279 280 280 280 280 280 281 280 281 281 281 281 282 282 279 277 277 275 274 273 272 271 271 270 269 272 274 271 268 270 267 270 270 267 265 265 267 268 270 270 270 269 268 272 273 273 272 273 273 274 274 275 275 275 275 273
285 285 284 284 285 286 286 286 286 286 286 284 282 281 280 280 281 281 279 279 281 280 279 279 279 279 279 279 279 279 279 280 279 278 278 276 276 275 273 272 271 272 272 273 277 273 270 271 270 270 269 269 268 266 268 268 270 270 270 269 268 267 267 267 268 267 270 272 272 273 273 275 276 274
285 285 284 283 283 285 286 286 286 286 286 285 282 282 283 284 284 281 280 280 279 278 278 277 276 276 276 276 276 276 277 278 277 277 277 277 276 277 276 275 273 272 272 275 279 273 271 268 270 268 267 266 266 268 266 267 268 269 270 269 267 266 266 266 266 265 266 265 266 268 271 274 274 274
285 285 284 282 283 284 285 285 286 286 287 285 282 284 284 285 285 282 279 278 278 277 276 276 275 275 275 275 275 275 275 276 276 275 276 276 276 276 276 277 277 276 274 274 277 274 273 270 271 270 269 268 267 267 267 265 265 268 267 268 267 266 266 265 265 265 265 265 265 270 271 271 271 272
285 284 282 281 283 284 285 285 286 286 286 284 284 284 285 285 283 279 277 277 277 276 275 274 274 274 274 275 275 275 276 275 274 274 274 274 274 275 274 274 273 272 273 274 274 275 273 272 271 272 272 270 268 267 265 269 267 266 266 267 265 265 265 265 265 265 265 265 265 265 265 264 266 266
285 284 284 284 283 284 285 285 285 286 285 285 284 285 285 283 280 278 277 277 276 275 274 274 274 274 274 275 276 276 275 274 274 273 273 272 272 272 272 271 271 271 273 271 273 274 274 274 272 271 271 271 269 268 268 266 266 266 266 262 260 261 263 265 265 264 264 264 264 264 264 264 264 266
285 285 284 283 283 284 284 284 284 284 283 284 284 285 284 283 280 278 277 276 275 275 275 274 274 274 275 274 275 274 274 274 273 273 273 272 271 271 270 270 268 268 268 270 272 274 275 274 273 271 270 269 269 268 268 266 265 266 264 263 262 261 262 263 262 264 263 263 263 264 264 265 265 265
284 283 282 282 283 283 284 283 284 284 284 283 283 283 284 283 281 278 278 277 276 276 275 275 275 275 274 274 274 273 273 273 273 274 273 273 272 271 271 270 270 269 268 266 267 269 271 272 272 271 268 268 267 267 267 267 265 262 261 261 260 258 257 261 262 262 262 263 263 263 264 264 264 265
283 282 282 282 282 282 282 282 282 282 283 283 282 283 283 283 282 280 279 279 277 277 277 276 275 274 274 273 273 273 273 274 273 274 273 273 272 272 271 270 270 270 268 265 264 264 266 268 269 269 270 269 266 266 266 264 264 262 261 260 260 261 261 260 260 260 262 261 260 259 261 263 263 264
281 281 280 280 280 280 280 280 280 281 281 282 283 283 283 282 281 280 278 277 276 276 276 275 274 274 274 273 274 273 273 273 273 274 273 274 273 272 271 270 270 269 268 267 264 262 262 261 262 265 265 265 266 266 264 262 261 259 259 259 258 259 259 260 260 259 261 259 258 258 259 261 263 263
280 279 278 279 279 279 279 279 279 279 280 280 281 282 283 282 281 280 278 277 277 276 276 276 275 274 274 273 274 273 273 273 274 274 274 272 273 271 270 269 269 270 269 269 265 261 258 257 258 259 260 260 259 262 264 263 262 259 258 257 257 257 259 258 259 260 259 259 258 258 258 259 261 262
279 278 277 278 278 278 279 279 279 279 280 280 280 280 281 281 280 280 279 278 278 277 276 276 276 275 274 274 274 273 274 273 273 272 273 272 272 271 270 269 269 268 267 265 263 259 257 257 259 259 260 258 258 256 263 264 259 262 257 258 258 257 257 257 258 257 258 257 258 257 257 257 258 261
279 279 278 277 278 278 278 278 279 279 279 280 280 280 279 279 279 279 279 279 278 277 277 276 276 275 275 275 274 274 273 272 271 271 270 270 270 270 269 269 268 267 266 265 265 258 257 259 262 261 261 258 257 258 257 267 266 260 257 253 251 254 255 255 256 256 257 255 257 256 256 256 258 260
278 279 278 278 278 278 278 279 279 279 280 280 279 279 279 279 279 279 279 280 278 277 277 277 276 276 275 275 273 273 272 272 270 270 269 269 269 268 267 266 266 266 264 264 263 260 260 260 261 262 261 260 259 259 258 253 263 269 261 260 257 254 256 254 254 254 256 256 256 257 257 257 258 260
278 279 278 279 279 279 279 279 279 279 279 279 279 279 279 279 279 278 279 278 277 277 277 277 276 275 275 273 273 272 271 271 271 269 269 268 267 267 267 266 265 264 264 264 262 261 261 262 261 262 262 260 260 260 258 256 255 260 268 262 259 259 258 257 258 258 258 255 256 258 259 258 259 261
279 279 279 278 279 279 279 279 279 279 279 279 278 278 278 278 277 277 277 277 277 277 277 276 275 274 273 273 272 271 270 270 269 268 268 267 267 267 266 266 265 264 263 262 260 260 260 260 261 260 261 260 260 260 260 257 257 258 262 269 263 259 259 260 259 260 259 259 260 262 262 263 265 267
280 280 279 279 279 279 279 279 279 279 279 279 278 278 278 277 277 276 276 276 276 276 276 275 274 273 272 271 271 271 270 270 269 268 267 267 267 266 266 265 265 264 262 262 261 259 258 260 260 259 259 261 261 260 258 255 252 251 254 261 268 265 261 261 261 262 261 261 260 260 260 262 260 262
280 280 279 279 279 279 279 279 279 278 278 278 277 278 278 277 276 276 276 276 275 275 275 274 273 272 271 270 270 270 269 268 268 268 267 267 266 265 265 265 263 263 262 261 262 259 258 259 261 264 262 257 257 258 257 255 255 252 252 257 264 266 267 267 264 262 261 262 262 261 260 260 260 261
281 280 279 279 279 278 278 277 277 277 276 276 276 276 276 276 276 276 276 276 275 274 274 273 272 272 270 269 269 269 268 267 267 266 266 266 265 265 266 265 263 263 263 262 261 261 258 257 260 261 258 257 257 258 257 255 254 254 252 251 253 262 265 265 267 267 265 263 262 260 261 261 261 258
278 278 277 277 277 277 277 276 276 276 275 275 275 275 275 275 275 276 275 275 274 273 273 272 272 271 270 269 269 269 268 266 266 265 265 265 265 264 264 264 264 264 264 264 261 258 256 256 258 259 258 258 256 257 257 257 253 250 249 251 256 254 255 262 264 265 266 267 267 265 263 261 259 257
277 277 276 276 275 275 275 275 275 275 275 274 274 274 274 274 274 275 274 274 273 273 272 271 270 270 269 268 268 268 268 266 266 265 264 264 264 264 264 264 264 263 263 263 261 258 257 257 258 259 257 257 255 255 257 254 252 252 251 250 250 250 254 255 256 260 262 263 264 265 266 267 267 267
276 276 276 275 275 275 274 274 274 274 274 274 274 274 273 273 273 274 273 273 273 272 271 270 269 269 268 267 267 267 267 267 265 264 264 264 264 264 264 263 263 262 261 262 261 258 257 257 256 257 255 253 253 256 256 255 254 252 251 249 250 251 251 250 252 255 255 253 258 264 265 265 266 266
Wind_Speed
14 12 13 12 10 10 8 7 7 8 7 7 9 10 12 10 8 8 8 10 10 7 11 8 9 11 9 8 6 7 7 7 8 5 5 5 5 7 8 9 10 10 11 10 10 10 9 9 8 7 6 6 7 8 9 9 9 10 12 13 13 12 12 13 15 16 17 18 18 19 20 22 23 24
11 11 11 11 10 8 8 9 8 7 9 8 9 9 7 8 10 8 10 10 10 5 6 8 5 8 10 8 7 7 7 9 9 6 5 6 6 8 9 9 10 11 11 10 10 11 10 10 9 8 8 7 8 9 9 9 10 11 12 13 13 12 12 14 15 15 15 16 18 19 20 21 23 24
10 12 13 11 11 8 9 8 8 7 8 8 8 8 7 7 7 9 7 5 3 7 8 9 5 7 10 9 8 6 6 8 9 7 6 6 8 10 7 10 10 10 10 9 10 10 10 10 10 9 9 9 9 9 10 10 10 11 12 13 12 12 12 12 13 15 16 17 18 19 20 21 22 24
11 13 14 13 11 9 8 8 8 8 8 8 8 8 8 7 6 6 7 8 5 4 4 6 8 7 9 10 10 8 6 6 11 7 6 6 8 6 5 8 10 10 10 10 10 11 11 11 11 10 10 10 9 9 10 10 11 12 12 12 12 11 10 11 13 15 16 17 18 19 20 21 22 23
11 12 13 13 13 10 11 10 9 8 9 8 8 7 7 8 7 7 8 8 4 1 0 3 7 7 9 8 10 9 8 7 7 6 6 6 5 5 5 5 8 11 10 11 11 12 12 11 11 10 10 10 10 10 10 11 12 12 12 11 11 11 11 12 14 14 15 17 18 19 20 21 22 23
11 11 13 13 13 11 13 11 11 11 10 10 9 8 9 9 9 8 9 8 8 7 2 2 4 6 8 7 8 11 11 9 7 8 6 5 6 6 5 5 5 10 12 12 12 12 12 12 11 10 10 10 10 10 10 10 10 10 11 11 11 11 11 12 12 14 16 17 18 19 20 21 22 22
13 13 13 14 12 9 12 12 12 11 11 10 12 13 10 11 11 10 9 8 8 9 7 5 7 8 8 8 9 10 7 6 8 8 8 7 6 5 6 6 5 8 12 13 13 13 13 12 12 10 10 9 9 10 10 10 11 11 11 11 11 10 10 11 13 14 16 17 19 20 20 21 21 22
14 15 14 14 13 12 13 13 12 11 12 12 12 12 11 12 13 11 10 9 8 7 9 7 8 7 9 5 3 6 5 7 7 7 5 4 6 6 6 7 6 7 11 13 13 13 13 13 12 11 10 9 10 10 10 10 11 12 12 10 11 11 11 12 13 14 16 18 19 20 20 21 21 22
13 13 14 14 13 12 13 13 12 11 14 12 12 12 11 11 11 9 10 9 7 8 10 7 3 5 4 2 4 7 9 5 5 3 5 6 6 6 6 6 5 7 11 12 13 13 13 13 13 11 10 10 10 10 9 10 11 12 11 11 12 12 12 12 13 15 17 18 18 19 20 21 21 22
14 14 15 14 14 14 15 15 15 14 16 13 13 14 12 12 10 11 10 8 8 9 9 10 7 4 7 5 3 6 8 9 7 5 4 3 4 6 6 6 4 4 4 3 5 8 10 11 13 11 9 9 10 10 10 11 11 11 11 13 13 12 12 12 14 16 17 17 18 19 19 20 21 22
14 14 14 15 15 16 17 17 17 16 16 15 16 16 14 13 12 11 10 9 9 9 9 6 8 9 6 6 8 4 6 4 6 8 6 7 6 6 7 7 4 4 5 6 10 9 8 9 7 7 9 10 11 10 10 10 10 10 12 13 13 12 12 13 14 15 16 17 17 18 18 19 21 22
13 13 13 14 15 16 17 17 16 16 16 14 15 13 12 12 12 12 10 10 10 9 9 10 9 7 8 5 4 5 6 4 3 6 8 10 7 7 6 7 5 4 4 5 4 6 8 9 10 10 8 8 9 8 7 7 9 10 11 12 12 12 12 13 14 15 16 17 16 16 17 19 20 21
13 12 13 13 14 16 18 21 19 17 17 14 15 13 12 11 12 11 10 11 10 9 9 8 7 8 7 8 9 8 8 11 13 8 7 7 4 3 4 5 5 5 4 4 3 4 5 5 5 4 3 4 4 4 6 6 9 10 11 11 11 11 12 13 14 15 16 16 15 16 17 19 19 19
13 14 13 13 19 19 21 21 22 21 22 21 17 16 15 14 13 13 12 12 11 11 11 11 10 9 10 10 11 11 10 8 4 6 7 8 6 3 4 4 5 6 5 5 5 5 4 5 5 3 5 3 2 3 3 4 6 8 10 11 11 12 12 13 14 15 15 14 14 17 18 19 19 20
13 13 14 14 16 18 18 19 22 22 22 22 21 19 21 19 18 14 13 12 12 12 12 10 10 11 11 10 10 11 9 7 9 7 7 7 5 6 5 6 2 3 7 5 4 5 3 5 6 5 5 4 4 4 5 9 11 11 11 11 11 11 12 13 14 14 13 13 15 17 18 18 19 20
13 13 12 12 11 12 16 15 17 20 22 21 22 21 20 21 22 22 21 16 11 10 11 10 11 11 11 11 10 8 8 8 6 6 6 7 8 7 6 5 4 2 8 6 4 5 1 3 5 4 5 4 4 5 8 11 11 11 10 10 11 11 11 12 12 11 12 15 17 17 17 18 19 19
14 12 12 13 13 12 18 16 14 14 15 19 21 19 16 17 19 11 10 18 18 17 15 15 13 12 11 11 10 11 11 9 10 8 7 7 7 7 6 6 4 3 5 5 3 4 3 5 4 6 5 4 3 5 8 11 11 10 10 10 10 10 10 10 10 11 14 15 16 16 17 18 19 19
14 15 15 14 13 12 13 14 15 14 13 10 10 11 9 9 10 12 14 14 14 12 13 15 15 11 10 11 11 11 10 11 10 9 9 7 7 8 9 4 5 3 7 7 4 2 4 4 5 6 5 3 4 5 8 11 11 11 10 9 9 9 8 9 10 12 14 15 16 16 17 18 19 19
14 14 13 12 13 12 11 10 11 10 9 9 10 11 10 10 10 12 13 11 8 8 6 9 9 11 9 8 8 9 10 12 10 11 10 11 9 4 3 4 2 3 4 4 5 6 2 2 5 6 5 4 5 5 7 11 11 10 9 8 7 7 8 9 11 13 15 15 15 16 17 18 19 19
12 12 13 13 13 12 13 15 19 17 13 14 16 16 14 12 11 10 6 7 7 8 8 7 7 7 8 8 8 10 9 7 6 7 6 6 5 6 5 6 2 4 4 5 6 3 3 3 6 5 3 3 5 5 4 8 12 9 7 5 4 6 8 10 12 14 14 14 15 16 17 18 19 19
14 14 13 14 14 15 15 16 20 22 17 15 17 16 14 12 10 9 5 9 12 12 13 11 10 11 12 13 14 15 16 11 10 8 7 7 7 6 6 5 4 5 5 5 6 3 3 4 6 4 2 5 5 5 5 4 7 8 5 5 4 6 9 11 12 13 13 14 15 16 16 18 18 19
13 15 20 16 14 13 14 14 22 24 19 14 14 13 13 12 12 10 8 7 7 12 13 12 11 11 12 14 16 16 17 17 13 11 10 8 8 8 7 8 5 2 3 6 7 4 5 2 4 3 2 0 2 4 4 3 4 7 7 5 4 6 9 11 12 12 13 14 14 15 16 17 17 11
12 12 13 19 17 14 11 15 20 23 20 16 16 15 14 15 16 14 13 12 11 9 8 7 8 7 10 9 9 10 18 18 14 10 8 8 9 9 7 6 4 1 5 7 10 7 3 5 3 5 1 1 3 2 3 2 1 1 0 0 2 7 9 10 10 11 13 14 14 15 16 16 14 9
11 12 11 13 17 20 17 18 22 24 25 18 15 14 16 17 18 12 13 12 11 11 10 9 9 8 8 8 8 8 10 11 11 10 7 9 9 8 7 7 8 6 3 3 11 7 2 4 4 4 5 3 2 1 3 2 3 2 2 1 2 5 7 7 7 10 13 13 14 14 15 15 13 8
12 11 11 10 12 19 18 18 21 23 25 20 14 15 16 15 11 13 12 12 11 11 10 8 8 7 7 8 8 8 8 8 8 8 8 9 9 9 8 8 8 6 3 5 14 6 5 4 4 3 3 3 3 2 2 4 3 3 3 3 3 5 2 2 2 4 8 12 13 15 14 14 14 10
11 11 9 9 11 17 18 20 22 23 23 25 15 14 13 13 20 17 12 12 11 9 8 8 7 7 7 7 7 7 8 8 7 8 8 8 8 7 7 9 9 6 6 7 18 9 6 3 6 5 2 3 4 4 2 1 3 4 3 3 4 5 3 3 2 4 4 3 5 8 11 15 13 13
12 9 9 8 12 18 20 21 22 23 26 21 14 17 18 20 21 13 10 10 10 8 8 8 9 8 8 8 8 8 8 8 7 7 7 7 7 6 5 5 5 6 5 7 9 9 7 4 6 8 6 5 4 2 3 4 3 3 4 5 5 5 3 2 3 5 4 4 5 12 12 12 12 12
10 9 7 8 15 17 19 21 22 21 21 14 19 19 19 19 16 10 9 9 9 9 8 9 8 8 8 7 8 9 9 8 8 7 6 6 6 6 5 4 3 2 4 6 6 7 7 6 5 6 7 7 6 5 4 2 3 4 4 3 3 4 4 2 4 3 3 4 4 5 5 5 5 6
9 10 15 15 15 18 19 21 20 19 20 21 19 21 21 18 9 9 9 9 9 9 9 9 9 8 8 10 9 5 6 5 5 5 4 4 4 3 3 2 2 3 3 3 4 6 7 7 7 5 4 4 5 4 3 3 4 3 4 2 4 2 1 3 4 4 4 4 5 5 5 5 5 5
14 14 13 16 18 18 17 15 13 12 12 18 20 20 19 11 9 9 9 9 10 10 9 9 10 9 7 7 6 6 7 8 9 7 7 6 5 6 5 5 2 2 1 1 2 4 5 5 5 5 5 4 4 5 4 3 4 3 4 5 4 3 4 4 3 3 2 4 5 6 6 4 5 4
9 11 13 12 15 13 18 18 15 13 14 15 16 14 14 11 10 10 10 10 10 9 9 8 8 6 6 5 7 7 8 8 7 7 7 7 6 6 5 5 4 3 0 2 2 2 1 2 4 5 5 4 3 5 5 3 4 3 4 4 2 4 2 1 2 2 2 4 5 6 5 5 5 4
8 7 8 11 9 9 9 11 9 10 10 12 13 12 11 10 9 10 10 9 8 7 7 6 5 5 7 8 8 7 8 8 6 6 7 6 6 6 6 4 5 4 4 2 2 3 3 1 2 2 4 5 6 3 3 4 5 5 5 3 3 5 4 4 4 4 3 2 3 4 4 5 5 5
5 6 8 8 9 9 10 10 10 9 10 10 11 13 11 10 9 9 9 10 9 9 8 9 9 9 8 8 7 8 7 7 7 6 6 5 6 5 5 7 5 5 5 5 4 1 2 3 3 2 1 1 0 3 4 3 4 4 5 5 3 4 3 3 2 3 2 2 4 4 4 3 5 6
8 9 9 10 11 11 11 11 11 11 10 10 10 10 10 9 9 10 10 10 9 9 10 9 9 9 9 8 9 9 8 6 6 6 7 6 6 6 6 6 5 4 5 5 5 5 3 2 3 4 4 2 1 3 4 5 5 4 5 3 4 6 5 1 3 3 3 4 4 5 5 5 5 5
8 8 8 9 10 11 11 11 11 11 11 11 10 10 10 9 10 11 10 10 9 9 9 9 9 9 9 9 9 9 8 8 7 6 5 6 6 6 6 6 5 5 5 4 4 4 3 4 4 3 2 3 2 4 6 8 3 6 2 5 5 5 5 2 2 2 2 2 1 4 6 5 5 4
8 8 9 9 10 10 11 11 11 11 11 11 11 10 9 9 9 10 10 9 10 9 9 9 9 9 9 9 9 8 8 8 7 7 6 5 6 5 5 5 5 5 5 5 5 3 4 5 4 4 3 1 0 3 4 10 13 6 5 4 2 3 3 3 1 1 2 3 3 3 5 7 6 5
9 9 9 10 10 10 11 11 11 11 11 10 10 9 10 9 8 9 8 8 8 9 10 9 9 9 9 8 8 8 8 8 7 7 7 6 6 6 6 4 4 4 6 5 4 4 4 4 4 4 4 3 4 7 6 1 8 11 7 6 4 2 3 1 1 1 3 3 4 4 5 6 7 7
9 9 9 9 10 10 9 9 9 9 9 9 9 9 9 8 7 7 7 8 9 8 9 9 8 8 9 8 9 8 8 7 7 7 6 7 7 6 6 6 5 5 5 4 4 4 4 4 5 5 5 6 6 6 4 3 1 5 12 9 5 4 2 2 2 3 5 3 4 5 4 6 7 6
9 9 10 10 9 8 9 9 9 10 9 9 9 9 9 7 7 7 8 9 8 8 8 8 8 8 9 9 8 9 8 7 7 7 7 7 7 7 6 6 5 5 5 4 2 3 3 5 5 6 7 5 7 5 4 4 6 5 5 6 7 4 3 4 4 4 5 4 4 4 5 6 8 14
10 9 9 9 9 8 8 7 8 8 8 8 8 8 8 9 9 9 9 8 8 8 8 7 8 8 8 8 8 7 8 9 8 7 8 7 6 6 6 6 6 6 4 5 5 4 6 6 6 7 8 8 2 1 3 2 1 4 6 9 10 6 4 3 5 4 3 3 3 5 6 5 6 5
9 10 9 8 7 7 7 7 6 5 6 5 5 6 6 7 8 8 8 8 7 8 8 8 8 9 8 8 8 9 8 7 8 8 8 7 7 7 7 6 5 5 7 6 6 5 8 9 6 5 3 4 4 4 2 1 3 3 5 5 2 4 6 4 2 2 3 4 4 5 5 6 6 5
6 7 6 5 6 4 4 5 4 5 5 5 6 6 6 6 6 9 8 9 9 9 8 8 8 8 8 8 8 8 9 8 7 7 7 8 7 7 7 6 7 6 6 7 7 8 2 2 4 5 5 5 5 5 6 5 6 5 4 5 4 2 2 6 8 8 6 4 3 5 5 5 3 5
3 3 3 3 3 4 5 5 5 5 5 5 6 6 6 6 6 8 7 8 8 8 8 7 7 8 8 8 8 8 8 9 9 8 8 7 8 7 7 6 7 7 7 6 3 3 4 3 4 5 5 5 5 5 6 6 4 3 3 4 6 5 4 4 6 10 11 11 10 7 4 4 2 4
4 4 4 4 5 5 5 5 5 5 6 6 6 6 7 7 8 8 7 8 8 8 7 7 7 8 8 8 8 7 8 8 8 9 8 8 7 7 7 6 7 6 6 5 4 3 3 4 4 5 6 6 5 5 7 4 4 5 5 3 3 4 7 7 5 3 2 3 7 8 8 9 10 12
4 5 5 5 5 5 5 5 6 6 6 6 7 7 7 7 8 7 8 8 8 8 8 8 8 8 8 8 9 8 7 7 8 7 7 7 7 7 7 7 6 6 6 6 6 4 4 4 3 2 2 3 4 5 5 4 5 3 2 1 4 4 4 3 5 8 7 4 4 7 8 10 12 14
Wind_Direction
210 213 212 214 214 209 198 200 202 191 181 179 178 180 176 181 165 173 210 223 222 212 198 196 214 197 196 195 186 186 199 202 199 205 204 211 218 232 238 243 245 244 240 240 244 244 242 244 250 258 267 271 277 284 288 298 308 308 305 306 309 315 317 319 323 322 320 320 321 319 319 320 320 319
212 212 213 214 220 208 191 203 198 191 188 179 187 194 201 180 183 177 188 226 200 201 193 208 184 184 196 187 186 189 199 201 194 196 203 213 218 224 233 244 248 247 247 247 247 246 243 243 245 250 258 265 272 279 285 293 300 301 303 306 307 308 316 324 324 322 322 321 319 318 318 319 319 317
209 213 216 213 220 203 204 198 194 202 191 192 188 202 196 203 198 172 185 219 248 163 192 211 189 173 187 181 179 185 196 199 193 192 201 212 218 221 232 241 247 247 248 250 252 251 251 246 247 249 252 260 268 276 286 294 295 298 301 302 304 312 325 326 324 320 318 317 318 317 318 319 317 317
210 213 215 213 215 207 200 201 196 198 204 193 191 196 196 204 197 171 182 206 226 204 205 186 184 165 168 172 180 188 191 194 198 189 198 210 217 226 227 241 243 247 248 251 251 250 248 248 248 249 252 259 267 276 283 285 287 295 300 301 306 318 324 322 317 316 316 315 314 316 317 317 316 317
212 214 217 217 214 202 203 204 195 197 199 197 200 195 192 198 189 177 188 202 198 281 17 179 176 160 150 174 185 184 187 186 194 189 198 199 209 219 225 230 243 245 250 252 254 254 253 252 252 251 252 253 259 270 276 278 285 294 297 303 311 315 319 318 316 315 312 311 313 315 316 316 316 316
211 211 217 220 214 203 209 203 199 198 196 195 192 197 192 198 195 197 181 199 173 197 136 131 124 153 171 168 180 188 184 193 170 195 196 200 204 215 214 224 232 239 245 251 253 253 254 254 254 253 252 257 262 266 274 283 286 288 294 304 310 313 315 314 311 308 307 310 313 315 316 316 315 316
207 210 214 218 211 203 210 210 207 200 201 197 198 198 194 199 199 196 197 166 187 173 194 161 163 174 177 184 181 190 189 174 175 193 204 202 209 211 214 218 225 235 241 247 251 253 255 255 254 253 254 259 262 264 270 277 280 283 292 306 314 316 311 305 304 303 306 309 313 316 316 315 314 314
205 208 210 215 209 203 211 214 207 205 203 201 203 200 197 199 198 196 195 197 169 173 161 191 183 177 166 186 129 161 150 162 180 200 202 203 211 217 214 199 227 234 241 247 251 253 254 255 255 253 254 257 263 265 270 274 276 279 289 305 312 310 306 303 301 301 305 310 315 317 316 313 313 315
211 211 215 215 208 201 210 215 213 205 203 204 203 202 197 199 198 193 192 193 168 155 177 161 158 156 151 99 123 157 161 156 149 149 200 202 208 221 197 192 226 237 245 249 251 253 254 256 257 254 252 258 262 267 274 276 273 277 291 305 309 308 302 300 300 302 307 312 316 316 314 313 314 316
213 211 213 215 208 206 209 213 211 207 208 206 206 204 199 197 193 190 190 183 173 165 171 163 139 168 167 148 157 174 173 168 177 196 202 206 222 198 216 220 193 197 220 227 248 254 257 262 261 258 256 260 266 271 273 269 272 284 298 303 305 303 302 302 302 305 309 313 315 314 313 313 315 316
222 217 216 215 209 208 210 214 211 207 206 204 206 204 200 195 186 185 183 178 174 168 154 163 170 159 182 170 164 158 169 159 178 188 185 230 213 197 217 237 211 200 224 232 234 233 234 244 249 259 261 261 261 261 263 271 281 293 299 301 303 303 301 301 303 306 309 312 313 312 313 314 315 314
226 221 218 217 213 210 211 212 213 205 206 204 207 205 199 192 186 183 177 178 176 167 164 169 167 178 156 141 67 83 132 161 245 212 195 213 205 208 210 225 215 195 198 232 229 245 245 248 251 250 251 248 249 260 273 282 288 294 295 295 293 294 298 300 305 307 310 311 311 312 313 314 315 316
224 222 219 219 218 214 215 215 214 207 203 198 204 202 192 189 191 189 184 182 176 172 167 163 152 155 162 168 149 152 171 191 204 189 183 222 215 158 182 236 214 197 187 206 211 229 208 226 238 218 243 254 246 257 257 272 282 284 281 282 288 296 301 304 305 308 310 310 311 312 314 315 315 315
226 222 218 219 219 218 217 218 219 216 212 211 206 194 189 188 189 190 187 186 180 173 176 172 161 168 175 174 179 178 193 185 109 133 174 209 206 132 224 258 219 191 186 198 224 224 196 197 234 197 224 236 209 216 249 244 249 261 273 283 290 298 302 304 305 307 308 308 311 312 313 314 313 312
227 226 223 221 218 219 220 222 225 224 220 217 218 213 199 190 185 184 186 189 182 180 179 170 168 175 174 179 178 188 176 171 184 180 180 192 155 191 193 235 310 191 171 190 213 244 196 178 215 217 216 220 213 219 231 253 263 266 272 281 292 299 301 303 305 305 306 310 313 313 312 312 313 314
230 229 228 229 224 219 218 215 220 224 223 220 219 217 209 205 200 188 180 178 184 182 171 171 182 174 180 172 173 178 168 181 176 189 175 185 187 192 205 203 209 201 160 162 172 245 231 174 208 225 229 210 209 223 237 252 258 266 276 288 292 297 301 303 303 305 310 313 313 312 312 312 313 315
231 228 225 224 222 222 216 217 219 220 223 223 220 223 222 218 215 215 219 195 183 176 179 177 181 183 168 168 184 181 182 166 179 175 189 196 197 201 203 211 185 202 161 134 175 222 226 161 206 217 232 204 209 238 248 251 260 269 279 287 296 300 302 302 302 308 313 314 312 312 312 312 313 313
234 230 228 224 222 218 210 211 213 213 214 210 211 217 215 210 222 221 218 204 199 192 183 173 173 182 166 174 178 179 159 163 183 176 200 188 191 200 212 192 181 138 159 171 151 266 235 189 189 223 239 181 226 229 239 248 257 265 277 290 293 299 300 300 306 313 315 313 313 312 312 313 313 313
235 234 235 234 230 222 214 211 204 203 198 192 198 201 199 195 200 202 202 196 181 169 157 164 165 168 172 163 152 158 169 182 186 183 185 184 188 166 73 54 70 135 179 154 139 232 263 185 180 223 221 200 226 228 244 251 254 264 278 286 291 290 295 300 308 314 314 314 314 313 313 313 313 313
237 234 229 228 226 217 215 204 192 195 189 191 194 195 195 194 197 202 193 169 163 161 153 151 147 155 169 161 151 162 171 166 123 95 73 90 109 136 155 199 157 189 192 180 177 210 242 204 185 217 217 184 221 238 228 249 254 262 274 272 275 295 298 300 308 313 315 316 315 314 314 313 313 315
237 232 228 227 225 219 219 204 193 194 180 195 197 197 194 191 183 183 156 158 161 151 134 132 134 141 161 175 174 171 169 161 145 125 127 168 160 148 193 215 168 223 173 208 198 159 238 197 180 219 258 196 214 233 233 237 253 260 246 233 264 285 296 303 308 313 318 318 315 315 314 314 315 319
239 234 231 229 229 227 226 205 198 195 183 192 196 197 192 185 184 182 166 150 154 144 136 144 155 164 171 179 184 180 174 162 153 154 187 181 155 193 194 213 191 209 195 204 166 147 223 167 171 175 274 326 256 227 235 233 236 246 244 228 242 274 294 303 308 316 319 317 314 314 314 314 319 323
240 241 233 229 228 227 221 206 200 193 184 195 192 189 183 188 194 189 167 164 157 152 148 163 166 178 181 184 180 183 180 170 174 185 181 148 176 194 198 179 109 221 248 199 169 176 235 149 221 145 71 319 272 186 264 278 211 173 174 344 325 289 293 304 311 316 317 315 313 313 314 317 322 319
242 238 238 232 224 223 212 201 196 193 186 192 192 185 192 194 198 174 172 179 164 161 166 171 175 179 176 179 177 177 184 181 180 189 175 176 182 190 181 180 182 190 201 167 163 178 217 176 197 190 171 176 266 253 202 234 192 196 157 222 255 279 297 307 315 310 310 313 314 314 316 318 320 321
243 238 232 231 221 217 205 194 194 196 194 189 189 192 199 200 174 158 173 172 156 161 161 166 170 170 173 179 175 178 183 188 182 188 188 184 188 180 177 175 187 215 182 171 170 174 194 175 196 167 214 194 192 156 229 174 237 194 199 171 218 272 253 261 264 281 299 307 310 315 317 315 321 327
242 239 233 231 213 210 200 197 195 197 197 192 191 198 197 176 167 173 171 164 164 157 160 163 172 176 176 177 176 180 186 193 186 182 189 186 190 192 181 175 177 192 194 185 174 178 162 196 175 169 170 163 258 187 190 209 200 222 211 199 216 248 230 226 250 270 276 267 287 299 304 316 323 325
241 237 230 221 204 208 203 194 191 198 200 189 193 189 187 178 166 158 165 159 153 151 159 167 183 184 183 182 187 186 194 197 186 184 183 182 178 182 178 177 180 183 161 169 186 177 181 188 174 180 197 194 197 220 196 182 269 158 220 235 235 249 223 200 251 259 264 271 279 299 312 314 319 326
241 235 217 210 210 205 194 190 195 200 195 187 190 186 176 158 154 155 153 152 154 154 164 178 183 191 193 187 190 199 197 188 185 177 171 170 172 168 172 173 169 137 139 165 177 177 186 188 191 199 195 195 208 203 211 210 147 188 207 268 225 248 255 217 254 252 263 275 275 288 287 298 312 323
238 228 221 212 198 197 191 192 196 199 190 185 183 179 165 162 157 161 155 152 149 162 177 186 193 195 192 196 199 174 161 156 146 156 158 149 147 135 123 124 133 150 154 171 174 184 190 199 199 191 187 198 200 209 176 206 164 206 196 208 286 276 244 225 213 241 259 263 270 283 281 287 303 310
227 221 200 188 189 192 191 189 193 197 193 176 174 173 169 173 170 164 160 159 168 180 182 188 194 198 184 182 167 147 152 166 184 170 162 150 143 139 132 111 95 80 75 133 188 199 197 196 181 166 188 196 200 203 216 198 239 181 183 211 248 308 253 217 234 241 247 275 279 283 285 285 288 295
215 202 188 189 190 195 193 194 196 192 184 180 183 186 186 182 172 172 174 174 179 185 183 191 197 180 160 131 134 166 173 183 178 171 162 160 159 145 143 147 166 161 115 27 21 14 75 137 142 162 153 180 192 208 216 203 221 205 241 238 186 225 262 199 250 262 270 271 276 280 283 290 286 287
204 190 188 188 186 191 191 195 198 196 190 187 185 189 189 187 178 177 178 179 185 182 178 170 142 126 146 166 178 170 178 179 168 164 165 163 153 147 139 144 193 169 144 101 27 6 24 39 131 166 179 181 190 204 145 189 213 227 245 245 222 266 250 258 268 281 269 267 283 279 279 284 293 293
162 164 178 182 185 187 189 192 195 195 194 194 191 190 189 183 178 172 177 183 185 179 167 173 173 174 169 172 171 173 174 177 167 161 158 159 151 139 154 189 176 170 178 180 150 69 33 30 28 61 52 44 60 159 170 228 236 202 217 250 257 260 264 238 221 258 290 290 261 266 283 281 281 288
189 186 182 185 184 187 189 193 194 195 196 196 194 197 191 183 181 180 184 186 184 177 183 177 172 173 169 172 175 179 176 164 165 166 162 158 153 158 177 182 188 168 170 191 157 160 127 43 73 47 45 41 338 200 195 208 232 235 225 239 228 254 264 210 256 238 233 227 254 290 290 288 285 284
193 196 194 195 190 192 190 193 195 193 197 198 198 197 194 194 189 186 186 187 177 178 177 175 175 172 175 177 176 176 173 164 156 152 147 145 159 176 175 183 178 164 168 192 185 157 144 110 103 65 29 11 10 318 216 191 196 234 255 251 228 231 265 249 222 260 222 269 255 286 289 281 279 275
201 201 199 200 200 197 199 200 195 195 197 198 198 196 196 198 190 187 190 181 176 177 174 176 176 175 177 175 172 168 161 155 155 155 147 151 162 162 164 177 168 164 165 183 195 128 127 137 141 142 178 252 64 289 326 206 186 187 188 257 255 184 234 228 260 215 255 274 264 265 285 295 293 293
204 206 208 207 206 202 204 200 197 198 196 195 195 195 197 196 192 195 186 169 172 175 179 175 179 174 172 166 160 160 156 158 157 154 156 156 159 161 162 157 144 153 131 183 159 140 140 144 177 165 154 204 207 249 241 322 228 209 169 226 246 197 208 198 181 291 253 223 268 247 259 278 286 288
210 209 214 215 212 209 205 203 199 198 196 193 193 192 195 194 182 178 163 168 177 176 180 181 176 165 164 160 158 159 156 154 146 153 160 156 162 168 168 162 156 163 175 176 162 163 168 166 179 188 177 206 230 237 263 299 349 268 211 194 218 239 144 151 231 259 275 244 233 263 262 271 277 282
211 212 214 217 218 214 210 207 202 202 195 191 190 190 185 177 166 163 172 179 176 175 174 169 168 163 158 161 159 155 152 150 154 158 157 164 166 162 154 157 164 167 158 190 146 162 150 194 193 192 192 191 214 222 189 205 246 267 286 223 180 206 221 181 232 257 249 252 256 255 248 255 280 291
217 214 217 216 218 215 218 209 210 205 199 196 192 186 177 175 171 170 173 172 172 174 170 166 157 152 155 157 152 146 148 156 158 156 158 158 160 157 159 161 172 165 161 197 197 195 195 214 201 196 200 207 202 113 152 157 244 294 291 295 286 261 224 204 246 234 253 264 284 281 280 291 280 279
215 217 218 213 215 211 211 206 203 191 190 177 171 173 171 167 167 173 173 169 162 165 166 160 159 160 157 153 153 151 152 152 154 155 155 153 154 156 162 160 144 156 167 209 206 202 211 220 209 205 150 85 115 97 58 271 267 275 291 281 324 310 287 271 209 233 269 272 261 266 275 280 289 303
239 230 216 194 201 189 179 177 161 165 162 161 161 163 161 164 166 169 170 173 167 168 161 161 161 157 152 152 151 149 151 157 156 156 155 155 156 156 169 157 148 172 181 204 205 217 214 132 161 169 124 126 125 158 215 210 233 266 266 281 296 284 305 298 295 292 287 274 255 271 283 294 299 281
270 232 197 172 159 160 167 167 165 163 160 156 160 157 152 155 156 172 170 171 166 167 167 162 159 156 153 153 156 157 153 157 159 158 160 161 155 153 161 172 180 186 191 205 180 127 120 110 122 135 150 159 188 178 213 221 217 230 278 299 291 318 300 277 296 301 302 300 294 286 272 261 263 277
198 200 183 173 172 172 169 169 166 167 160 164 164 162 165 165 174 177 173 171 167 172 165 160 159 156 155 153 154 160 162 157 155 158 161 161 157 160 164 169 174 176 180 179 162 131 114 136 148 147 156 193 181 176 222 219 245 227 228 255 299 338 313 320 317 306 304 305 309 301 294 290 286 286
195 193 184 178 180 172 171 169 168 168 166 162 168 173 174 174 179 175 174 173 170 168 162 160 160 158 154 154 158 166 165 147 150 157 152 151 153 156 159 161 166 167 162 170 164 161 152 146 145 146 176 191 175 203 216 196 215 209 223 246 281 294 295 324 328 324 319 306 280 287 299 305 304 303